Date String (YYYY-MM-DD hh:mm:ss) UTC,Instrument flags,Ambient pressure (hPa),Sample flow (lpm),Bypass flow (lpm),Sample temperature (°C),Ambient temperature (°C),ASC tube jacket temperature (°C),LED temperature (°C),Box temperature (°C),Sample RH (%),Span deviation,Mass concentration (μg/m³),Mass concentration (μg/m³),Mass concentration (μg/m³)
DateTimeUTC,F1_M11,P_M11,Q1_M11,Q2_M11,T1_M11,T2_M11,T3_M11,T4_M11,T5_M11,U1_M11,ZSPAN_M11,X0_M11,X2_M11,X1_M11
2022-11-06 20:00:00,,0824.4,5.00,0.00,21.6,20.0,00.0,30.4,23.4,15.7,0000.0,0005.40,0002.41,0001.55
2022-11-06 20:01:00,,0824.5,4.99,0.00,21.6,20.1,00.0,30.4,23.4,15.8,0000.0,0005.24,0002.35,0001.53
2022-11-06 20:02:00,,0824.6,4.99,0.00,21.6,20.2,00.0,30.4,23.5,15.9,0000.0,0005.25,0002.33,0001.53
2022-11-06 20:03:00,,0824.4,5.00,0.00,21.6,20.2,00.0,30.4,23.5,15.5,0000.0,0005.25,0002.32,0001.52
2022-11-06 20:04:00,,0824.5,5.00,0.00,21.6,20.2,00.0,30.4,23.5,15.7,0000.0,0005.39,0002.35,0001.52
2022-11-06 20:05:00,,0824.5,5.00,0.00,21.6,20.2,00.0,30.4,23.5,15.6,0000.0,0005.78,0002.35,0001.50
2022-11-06 20:06:00,,0824.5,5.00,0.00,21.6,20.2,00.0,30.4,23.5,15.5,0000.0,0006.55,0002.39,0001.49
2022-11-06 20:07:00,,0824.6,5.01,0.00,21.6,20.2,00.0,30.4,23.5,15.4,0000.0,0007.65,0002.40,0001.47
2022-11-06 20:08:00,,0824.5,5.00,0.00,21.6,20.2,00.0,30.4,23.5,15.5,0000.0,0007.78,0002.36,0001.44
2022-11-06 20:09:00,,0824.4,4.99,0.00,21.6,20.1,00.0,30.4,23.4,15.6,0000.0,0007.68,0002.36,0001.44
2022-11-06 20:10:00,,0824.4,5.00,0.00,21.6,20.1,00.0,30.4,23.4,15.6,0000.0,0007.70,0002.36,0001.44
2022-11-06 20:11:00,,0824.4,5.02,0.00,21.6,20.1,00.0,30.4,23.4,15.5,0000.0,0007.83,0002.34,0001.42
2022-11-06 20:12:00,,0824.4,5.00,0.00,21.5,20.1,00.0,30.4,23.4,15.7,0000.0,0007.93,0002.34,0001.42
2022-11-06 20:13:00,,0824.5,4.99,0.00,21.5,20.1,00.0,30.4,23.4,15.3,0000.0,0008.23,0002.36,0001.40
2022-11-06 20:14:00,,0824.4,5.00,0.00,21.5,20.0,00.0,30.4,23.4,15.4,0000.0,0008.39,0002.39,0001.39
2022-11-06 20:15:00,,0824.4,5.02,0.00,21.5,19.9,00.0,30.4,23.4,15.3,0000.0,0008.33,0002.36,0001.37
2022-11-06 20:16:00,,0824.5,5.00,0.00,21.5,19.9,00.0,30.4,23.3,15.4,0000.0,0008.00,0002.36,0001.37
2022-11-06 20:17:00,,0824.4,4.99,0.00,21.5,19.9,00.0,30.4,23.3,15.3,0000.0,0007.71,0002.37,0001.37
2022-11-06 20:18:00,,0824.7,5.00,0.00,21.5,20.5,00.0,30.3,23.5,15.5,0000.0,0007.31,0002.35,0001.36
2022-11-06 20:19:00,,0824.6,5.02,0.00,21.7,21.6,00.0,30.3,23.7,15.5,0000.0,0007.41,0002.34,0001.37
2022-11-06 20:20:00,,0824.5,4.97,0.00,21.8,22.2,00.0,30.4,23.9,15.6,0000.0,0007.44,0002.31,0001.35
2022-11-06 20:21:00,,0824.6,5.01,0.00,21.8,21.9,00.0,30.4,23.9,15.4,0000.0,0008.23,0002.34,0001.33
2022-11-06 20:22:00,,0824.6,5.00,0.00,21.8,21.4,00.0,30.5,23.9,15.2,0000.0,0008.33,0002.37,0001.31
2022-11-06 20:23:00,,0824.7,4.99,0.00,21.8,21.1,00.0,30.5,23.8,15.1,0000.0,0008.56,0002.37,0001.30
2022-11-06 20:24:00,,0824.5,5.02,0.00,21.8,20.8,00.0,30.5,23.7,15.2,0000.0,0008.70,0002.37,0001.30
2022-11-06 20:25:00,,0824.6,4.99,0.00,21.8,20.6,00.0,30.5,23.7,15.2,0000.0,0008.54,0002.34,0001.30
2022-11-06 20:26:00,,0824.5,4.99,0.00,21.8,20.5,00.0,30.5,23.7,15.5,0000.0,0008.57,0002.32,0001.29
2022-11-06 20:27:00,,0824.5,5.01,0.00,21.8,20.4,00.0,30.5,23.7,15.6,0000.0,0008.69,0002.36,0001.29
2022-11-06 20:28:00,,0824.6,4.99,0.00,21.8,20.4,00.0,30.5,23.7,15.7,0000.0,0008.53,0002.36,0001.28
2022-11-06 20:29:00,,0824.5,5.00,0.00,21.8,20.4,00.0,30.5,23.7,15.6,0000.0,0008.59,0002.32,0001.28
2022-11-06 20:30:00,,0824.5,5.01,0.00,21.8,20.3,00.0,30.6,23.6,15.5,0000.0,0009.22,0002.34,0001.28
2022-11-06 20:31:00,,0824.6,5.01,0.00,21.7,20.2,00.0,30.5,23.6,15.9,0000.0,0009.97,0002.39,0001.30
2022-11-06 20:32:00,,0824.8,4.99,0.00,21.7,20.2,00.0,30.5,23.6,15.9,0000.0,0010.05,0002.32,0001.30
2022-11-06 20:33:00,,0824.8,5.01,0.00,21.7,20.2,00.0,30.5,23.6,16.0,0000.0,0010.13,0002.26,0001.30
2022-11-06 20:34:00,,0824.7,5.00,0.00,21.7,20.2,00.0,30.5,23.6,15.4,0000.0,0009.89,0002.26,0001.31
2022-11-06 20:35:00,,0824.6,4.99,0.00,21.7,20.2,00.0,30.5,23.5,15.3,0000.0,0009.59,0002.25,0001.30
2022-11-06 20:36:00,,0824.6,5.01,0.00,21.7,20.1,00.0,30.5,23.5,15.5,0000.0,0009.69,0002.27,0001.29
2022-11-06 20:37:00,,0824.6,4.98,0.00,21.7,20.1,00.0,30.5,23.5,15.4,0000.0,0009.98,0002.40,0001.30
2022-11-06 20:38:00,,0824.6,5.00,0.00,21.6,20.1,00.0,30.5,23.5,15.5,0000.0,0010.01,0002.36,0001.30
2022-11-06 20:39:00,,0824.6,5.00,0.00,21.6,20.0,00.0,30.5,23.5,15.3,0000.0,0009.90,0002.32,0001.30
2022-11-06 20:40:00,,0824.5,5.01,0.00,21.6,20.0,00.0,30.5,23.5,15.4,0000.0,0009.86,0002.38,0001.32
2022-11-06 20:41:00,,0824.6,5.00,0.00,21.6,20.1,00.0,30.5,23.5,15.6,0000.0,0008.62,0002.36,0001.32
2022-11-06 20:42:00,,0824.5,4.99,0.00,21.6,20.1,00.0,30.5,23.5,15.8,0000.0,0008.02,0002.30,0001.31
2022-11-06 20:43:00,,0824.6,5.01,0.00,21.6,20.2,00.0,30.5,23.5,15.6,0000.0,0007.19,0002.33,0001.31
2022-11-06 20:44:00,,0824.6,4.99,0.00,21.6,20.2,00.0,30.5,23.5,15.6,0000.0,0007.87,0002.36,0001.31
2022-11-06 20:45:00,,0824.7,5.00,0.00,21.6,20.3,00.0,30.5,23.5,15.5,0000.0,0008.26,0002.41,0001.30
2022-11-06 20:46:00,,0824.7,5.01,0.00,21.7,20.3,00.0,30.5,23.6,15.6,0000.0,0008.22,0002.37,0001.30
2022-11-06 20:47:00,,0824.8,4.98,0.00,21.7,20.3,00.0,30.5,23.6,15.6,0000.0,0008.13,0002.35,0001.30
2022-11-06 20:48:00,,0824.8,5.00,0.00,21.7,20.3,00.0,30.5,23.6,15.6,0000.0,0008.10,0002.25,0001.32
2022-11-06 20:49:00,,0824.8,5.01,0.00,21.7,20.3,00.0,30.5,23.6,15.8,0000.0,0008.71,0002.30,0001.40
2022-11-06 20:50:00,,0824.8,4.99,0.00,21.7,20.4,00.0,30.4,23.6,15.8,0000.0,0008.79,0002.49,0001.59
2022-11-06 20:51:00,,0824.8,5.01,0.00,21.7,20.4,00.0,30.5,23.6,15.7,0000.0,0008.67,0002.65,0001.80
2022-11-06 20:52:00,,0824.9,4.98,0.00,21.7,20.4,00.0,30.5,23.6,15.8,0000.0,0008.73,0002.76,0001.95
2022-11-06 20:53:00,,0824.8,5.01,0.00,21.7,20.4,00.0,30.5,23.6,15.9,0000.0,0008.83,0002.89,0002.01
2022-11-06 20:54:00,,0824.8,5.01,0.00,21.7,20.4,00.0,30.5,23.6,16.0,0000.0,0008.75,0002.97,0002.05
2022-11-06 20:55:00,,0824.9,5.00,0.00,21.7,20.5,00.0,30.5,23.6,15.9,0000.0,0007.96,0002.97,0002.07
2022-11-06 20:56:00,,0824.9,5.00,0.00,21.7,20.5,00.0,30.5,23.7,15.8,0000.0,0007.32,0002.89,0002.08
2022-11-06 20:57:00,,0824.9,5.01,0.00,21.8,20.5,00.0,30.5,23.7,15.9,0000.0,0007.10,0002.86,0002.10
2022-11-06 20:58:00,,0824.9,5.01,0.00,21.8,20.5,00.0,30.5,23.7,15.8,0000.0,0007.21,0002.89,0002.11
2022-11-06 20:59:00,,0824.9,4.99,0.00,21.8,20.5,00.0,30.5,23.7,15.9,0000.0,0006.98,0002.92,0002.10
